Tracking 28794 objects as of 19-Apr-2024
HD Live streaming from Space Station
objects crossing your sky now

TEMPSAT 2

Track TEMPSAT 2 now!
10-day predictions
TEMPSAT 2 is classified as:


NORAD ID: 4168
Int'l Code: 1969-082H
Perigee: 903.0 km
Apogee: 928.3 km
Inclination: 70.0 °
Period: 103.2 minutes
Semi major axis: 7286 km
RCS: 0.0673 m2 (small)
Launch date: September 30, 1969
Source: United States (US)
Launch site: AIR FORCE WESTERN TEST RANGE (AFWTR)
Your satellite tracking list
Your tracking list is empty




NASA's NSSDC Master Catalog

Two Line Element Set (TLE):
1 04168U 69082H   24110.06033100  .00000191  00000-0  17861-3 0  9992
2 04168  70.0162 343.5736 0017332  73.4415 286.8593 13.95762942777963
Source of the keplerian elements: AFSPC